This is the latest recevied weather packets stored in our database for station/object KI6SYE. If no packets are shown the sender has not sent any weather packets the latest 10 day(s).
| Time | Temp. | Humidity | Pressure | Rain* | Wind** | Luminosity | Snow |
|---|---|---|---|---|---|---|---|
| 1788114630 | 25.56° C | 78% | 1012.3 hPa | 0 mm | - | 682 W/m² | - |
| 1788114321 | 26.11° C | 76% | 1012.2 hPa | 0 mm | - | 676 W/m² | - |
| 1788114017 | 26.11° C | 77% | 1012.2 hPa | 0 mm | - | 666 W/m² | - |
| 1788113713 | 25.56° C | 79% | 1012.4 hPa | 0 mm | - | 659 W/m² | - |
| 1788113412 | 25.56° C | 78% | 1012.2 hPa | 0 mm | - | 651 W/m² | - |
| 1788113111 | 25.56° C | 78% | 1012.4 hPa | 0 mm | - | 639 W/m² | - |
| 1788112811 | 25.56° C | 78% | 1012.4 hPa | 0 mm | - | 631 W/m² | - |
| 1788112506 | 25° C | 77% | 1012.2 hPa | 0 mm | - | 626 W/m² | - |
| 1788112201 | 25° C | 76% | 1012.3 hPa | 0 mm | - | 616 W/m² | - |
| 1788111896 | 25° C | 76% | 1012.4 hPa | 0 mm | - | 605 W/m² | - |
| 1788111596 | 25° C | 74% | 1012.4 hPa | 0 mm | - | 595 W/m² | - |
| 1788111292 | 25.56° C | 74% | 1012.1 hPa | 0 mm | - | 585 W/m² | - |
| 1788110987 | 25.56° C | 73% | 1012.2 hPa | 0 mm | - | 576 W/m² | - |
| 1788110684 | 26.11° C | 72% | 1012.1 hPa | 0 mm | - | 563 W/m² | - |
| 1788110379 | 25.56° C | 72% | 1012.2 hPa | 0 mm | - | 550 W/m² | - |
| 1788110074 | 25.56° C | 72% | 1012 hPa | 0 mm | - | 543 W/m² | - |
| 1788109768 | 25.56° C | 72% | 1012 hPa | 0 mm | - | 527 W/m² | - |
| 1788109468 | 25.56° C | 72% | 1012.1 hPa | 0 mm | - | 518 W/m² | - |
| 1788109166 | 26.11° C | 73% | 1012.2 hPa | 0 mm | - | 501 W/m² | - |
| 1788108863 | 25.56° C | 73% | 1012.1 hPa | 0 mm | - | 492 W/m² | - |
| 1788108554 | 25.56° C | 74% | 1012.2 hPa | 0 mm | - | 476 W/m² | - |
| 1788108249 | 25° C | 75% | 1012.1 hPa | 0 mm | - | 460 W/m² | - |
| 1788107945 | 25° C | 74% | 1012 hPa | 0 mm | - | 448 W/m² | - |
| 1788107641 | 25.56° C | 74% | 1012.1 hPa | 0 mm | - | 431 W/m² | - |
| 1788107341 | 25° C | 74% | 1012 hPa | 0 mm | - | 414 W/m² | - |
* Rain latest hour (hover to see other rain measurements)
** Current wind speed in m/s (hover to see current wind gust speed)